GW1917 Weather Reports


time (UTC)temp
F
wind
direction
speed
knots
gust
knots
rain 1hr
in
rain 24hr
in
rain mn
in
humidity
%
barometer
mb
20260504050738 46 147 0.0 0.9 0.00 0.03 0.03 99 1008.4
20260504050235 46 161 0.0 0.9 0.00 0.03 0.03 99 1008.5
20260504045732 46 157 0.9 0.9 0.00 0.03 0.03 99 1008.5
20260504045227 46 152 0.0 0.9 0.07 0.03 0.03 99 1008.3
20260504044725 46 121 0.0 0.9 0.07 0.03 0.03 99 1008.5
20260504044222 46 158 0.9 1.7 0.00 0.02 0.02 99 1008.7
20260504043720 46 164 1.7 1.7 0.05 0.02 0.02 99 1008.6
20260504043216 46 135 0.9 0.9 0.05 0.02 0.02 99 1008.3
20260504042714 46 152 0.9 0.9 0.07 0.01 0.01 99 1008.9
20260504042210 46 153 0.9 0.9 0.07 0.01 0.01 98 1009.0
20260504041706 46 141 1.7 2.6 0.07 0.01 0.01 98 1009.2
20260504041202 46 177 1.7 1.7 0.00 0.00 0.00 98 1009.3
20260504040659 46 172 0.0 0.9 0.00 0.00 0.00 98 1009.3
20260504040156 46 159 0.9 0.9 0.00 0.00 0.00 98 1009.3
20260504035652 46 164 0.9 0.9 0.00 0.06 0.06 98 1009.1
20260504035150 46 172 0.9 0.9 0.00 0.06 0.06 98 1009.1
20260504034647 46 155 0.9 0.9 0.05 0.06 0.06 98 1009.1
20260504034144 46 164 0.0 0.9 0.05 0.06 0.06 97 1009.1
20260504033642 46 173 1.7 2.6 0.00 0.05 0.05 97 1009.0
20260504033139 46 162 0.9 0.9 0.00 0.05 0.05 97 1009.1
20260504032635 46 162 0.0 0.9 0.00 0.05 0.05 96 1009.2
20260504032132 46 159 0.0 0.0 0.00 0.05 0.05 96 1009.0
20260504031630 46 167 0.9 0.9 0.00 0.05 0.05 96 1008.9
20260504031126 46 167 0.9 0.9 0.00 0.05 0.05 96 1008.9
20260504030623 46 159 0.9 0.9 0.00 0.05 0.05 96 1008.9
20260504030120 46 160 0.0 0.0 0.00 0.05 0.05 96 1008.9
20260504025616 46 155 0.0 0.9 0.00 0.05 0.05 96 1009.1
20260504025113 46 147 0.0 0.9 0.00 0.05 0.05 97 1009.0
20260504024611 46 158 0.0 0.0 0.00 0.05 0.05 96 1009.2
20260504024107 46 162 0.0 0.9 0.00 0.05 0.05 96 1009.2
20260504023603 46 155 0.0 0.0 0.00 0.05 0.05 97 1009.2
20260504023059 46 163 0.0 0.9 0.00 0.05 0.05 96 1009.3
20260504022556 45 182 0.9 0.9 0.00 0.05 0.05 96 1009.3
20260504022052 45 166 0.9 0.9 0.00 0.05 0.05 96 1009.5
20260504021550 45 154 0.9 0.9 0.07 0.05 0.05 95 1009.3
20260504021046 45 158 0.9 1.7 0.07 0.05 0.05 95 1009.6
20260504020543 45 186 0.9 1.7 0.07 0.05 0.05 95 1009.6
20260504020040 45 101 0.0 0.9 0.05 0.04 0.04 94 1009.6
20260504015536 45 143 0.0 0.0 0.05 0.04 0.04 93 1009.6
20260504015032 45 161 0.9 0.9 0.07 0.03 0.03 92 1009.8
20260504014529 45 160 1.7 1.7 0.12 0.03 0.03 90 1009.7
20260504014026 46 155 0.0 0.0 0.05 0.02 0.02 88 1009.8
20260504013524 46 169 0.9 0.9 0.07 0.01 0.01 86 1009.6
20260504013020 46 149 0.9 0.9 0.07 0.01 0.01 84 1009.7
20260504012518 46 195 1.7 1.7 0.00 0.00 0.00 83 1009.5
20260504012016 46 157 0.9 0.9 0.00 0.00 0.00 81 1009.7
20260504011512 47 176 1.7 1.7 0.00 0.00 0.00 80 1009.4
20260504011008 46 172 0.9 1.7 0.00 0.00 0.00 78 1009.3
20260504010504 46 173 1.7 1.7 0.00 0.00 0.00 76 1009.3
20260504010000 47 175 0.9 0.9 0.00 0.00 0.00 72 1009.2
20260504005457 47 161 0.0 0.9 0.00 0.00 0.00 71 1009.1
20260504004954 47 148 0.0 0.9 0.00 0.00 0.00 68 1009.0
20260504004452 48 158 0.9 0.9 0.00 0.00 0.00 64 1008.9
20260504003949 48 162 0.9 0.9 0.00 0.00 0.00 63 1009.2
20260504003445 48 158 0.9 1.7 0.00 0.00 0.00 62 1009.1
20260504002942 48 149 0.0 0.9 0.00 0.00 0.00 61 1009.0
20260504002439 48 154 0.0 0.0 0.00 0.00 0.00 61 1008.8
20260504001936 48 146 0.9 0.9 0.00 0.00 0.00 58 1008.9
20260504001433 48 144 0.9 0.9 0.00 0.00 0.00 59 1008.9
20260504000930 48 156 0.0 0.0 0.00 0.00 0.00 60 1008.9
20260504000427 48 160 0.9 0.9 0.00 0.00 0.00 58 1009.0
20260503235924 48 167 0.9 0.9 0.00 0.00 0.00 57 1009.1
20260503235422 48 137 0.9 0.9 0.00 0.00 0.00 59 1008.9
20260503234919 48 163 0.9 0.9 0.00 0.00 0.00 58 1009.2
20260503234417 48 160 0.9 1.7 0.00 0.00 0.00 56 1008.9
20260503233915 48 164 0.0 0.9 0.00 0.00 0.00 56 1009.2
20260503233411 48 163 0.9 0.9 0.00 0.00 0.00 55 1009.1
20260503232907 49 186 2.6 2.6 0.00 0.00 0.00 51 1009.3
20260503232405 49 163 0.9 1.7 0.00 0.00 0.00 50 1009.4
20260503231902 49 155 0.0 0.0 0.00 0.00 0.00 57 1009.5
20260503231359 49 162 0.0 0.0 0.00 0.00 0.00 56 1009.5
20260503230855 49 156 0.0 0.9 0.00 0.00 0.00 53 1009.5
20260503230352 49 158 0.0 0.9 0.00 0.00 0.00 52 1009.4
20260503225850 49 158 0.0 0.9 0.00 0.00 0.00 53 1009.5
20260503225346 49 159 0.0 0.0 0.00 0.00 0.00 50 1009.2
20260503224842 49 158 0.0 0.0 0.00 0.00 0.00 52 1009.5
20260503224339 49 155 1.7 1.7 0.00 0.00 0.00 51 1009.3
20260503223837 49 179 1.7 1.7 0.00 0.00 0.00 52 1009.6
20260503223335 49 155 0.0 0.0 0.00 0.00 0.00 53 1009.6
20260503222830 49 162 0.9 0.9 0.00 0.00 0.00 51 1009.3
20260503222329 49 175 0.9 1.7 0.00 0.00 0.00 53 1009.6
20260503221826 50 170 0.9 0.9 0.00 0.00 0.00 54 1009.6
20260503221325 50 197 1.7 1.7 0.00 0.00 0.00 52 1009.4
20260503220820 50 155 0.9 0.9 0.00 0.00 0.00 50 1009.5
20260503220318 50 185 0.0 0.9 0.00 0.00 0.00 52 1009.4
20260503215814 50 216 1.7 2.6 0.00 0.00 0.00 52 1009.6
20260503215312 50 180 2.6 2.6 0.00 0.00 0.00 49 1009.4
20260503214810 51 239 1.7 2.6 0.00 0.00 0.00 50 1009.5
20260503214306 51 150 1.7 2.6 0.00 0.00 0.00 49 1009.6
20260503213804 50 231 2.6 4.3 0.00 0.00 0.00 46 1009.6
20260503213301 51 252 1.7 2.6 0.00 0.00 0.00 50 1009.6
20260503212758 50 159 0.9 0.9 0.00 0.00 0.00 50 1009.8
20260503212256 51 141 0.9 0.9 0.00 0.00 0.00 47 1009.6
20260503211753 51 243 2.6 6.1 0.00 0.00 0.00 44 1009.6
20260503211249 52 197 2.6 2.6 0.00 0.00 0.00 43 1009.4
20260503210744 51 285 4.3 6.1 0.00 0.00 0.00 46 1009.6
20260503210242 52 177 1.7 1.7 0.00 0.00 0.00 48 1009.6
20260503205742 51 156 1.7 2.6 0.00 0.00 0.00 49 1009.8
20260503205239 51 194 0.0 0.9 0.00 0.00 0.00 50 1009.9
20260503204735 51 184 0.9 0.9 0.00 0.00 0.00 52 1009.9
20260503204233 52 284 3.5 5.2 0.00 0.00 0.00 52 1009.9
20260503203730 52 180 1.7 4.3 0.00 0.00 0.00 56 1009.9
20260503203228 51 157 4.3 6.1 0.00 0.00 0.00 57 1010.1
20260503202725 49 194 2.6 4.3 0.00 0.00 0.00 61 1010.1
20260503202223 50 189 0.9 1.7 0.00 0.00 0.00 61 1010.2
20260503201720 48 158 0.0 0.0 0.00 0.00 0.00 63 1010.3
20260503201218 49 271 7.0 7.8 0.00 0.00 0.00 60 1010.4
20260503200714 48 286 3.5 5.2 0.00 0.00 0.00 60 1010.4
20260503200210 49 218 6.1 7.8 0.00 0.00 0.00 57 1010.4
20260503195707 49 204 2.6 4.3 0.00 0.00 0.00 55 1010.3
20260503195204 50 218 3.5 4.3 0.00 0.00 0.00 53 1010.5
20260503194701 51 187 3.5 5.2 0.00 0.00 0.00 50 1010.7
20260503194156 49 226 3.5 5.2 0.00 0.00 0.00 50 1010.7
20260503193654 50 296 5.2 7.8 0.00 0.00 0.00 48 1010.6
20260503193149 52 217 3.5 6.1 0.00 0.00 0.00 46 1010.8
20260503192645 49 242 5.2 6.1 0.00 0.00 0.00 47 1010.8
20260503192141 49 191 7.0 11.3 0.00 0.00 0.00 46 1010.8
20260503191638 50 235 1.7 2.6 0.00 0.00 0.00 47 1011.0
20260503191135 49 303 5.2 7.0 0.00 0.00 0.00 48 1010.9
20260503190632 50 196 1.7 2.6 0.00 0.00 0.00 48 1011.1
20260503190129 50 183 2.6 4.3 0.00 0.00 0.00 48 1011.0
20260503185625 51 175 2.6 2.6 0.00 0.00 0.00 48 1011.3
20260503185120 49 111 1.7 1.7 0.00 0.00 0.00 48 1011.2
20260503184615 51 147 1.7 2.6 0.00 0.00 0.00 46 1011.2
20260503184112 51 155 0.9 1.7 0.00 0.00 0.00 47 1011.3
20260503183609 51 233 3.5 7.0 0.00 0.00 0.00 46 1011.4
20260503183106 51 144 2.6 2.6 0.00 0.00 0.00 50 1011.4
20260503182605 50 130 5.2 7.0 0.00 0.00 0.00 47 1011.6
20260503182102 50 183 2.6 2.6 0.00 0.00 0.00 50 1011.9
20260503181559 48 152 3.5 4.3 0.00 0.00 0.00 50 1011.8
20260503181055 48 238 5.2 7.8 0.00 0.00 0.00 51 1011.6
20260503180553 49 153 2.6 4.3 0.00 0.00 0.00 48 1011.8
20260503180050 49 197 2.6 4.3 0.00 0.00 0.00 49 1011.7
20260503175547 48 226 3.5 5.2 0.00 0.00 0.00 47 1011.5
20260503175045 49 241 2.6 5.2 0.00 0.00 0.00 51 1011.7
20260503174542 48 259 2.6 4.3 0.00 0.00 0.00 55 1011.5
20260503174038 49 175 6.1 7.8 0.00 0.00 0.00 53 1011.8
20260503173533 49 156 0.9 1.7 0.00 0.00 0.00 54 1011.7
20260503173029 49 204 3.5 4.3 0.00 0.00 0.00 55 1011.6
20260503172527 49 343 2.6 4.3 0.00 0.00 0.00 53 1011.9
20260503172024 49 231 2.6 2.6 0.00 0.00 0.00 54 1011.8
20260503171520 48 156 1.7 1.7 0.00 0.00 0.00 53 1012.0
20260503171018 49 221 6.1 7.8 0.00 0.00 0.00 52 1011.9
20260503170514 49 221 2.6 4.3 0.00 0.00 0.00 54 1012.0
20260503150907 45 280 3.5 7.0 0.00 0.00 0.00 66 1013.3
20260503150403 44 288 6.1 8.7 0.00 0.00 0.00 63 1013.5
20260503131256 44 301 3.5 4.3 0.00 0.00 0.00 57 1013.4
20260503130754 44 297 4.3 5.2 0.00 0.00 0.00 57 1013.6
20260503130251 44 323 3.5 5.2 0.00 0.00 0.00 58 1013.3
20260503120217 42 141 0.0 0.0 0.00 0.00 0.00 68 1013.2
20260503110644 41 170 0.9 0.9 0.00 0.00 0.00 72 1013.0
20260503110142 40 192 0.9 0.9 0.00 0.00 0.00 73 1012.8
20260503100109 40 181 0.9 0.9 0.00 0.00 0.00 78 1012.5
20260503081458 42 187 0.9 1.7 0.00 0.00 0.00 79 1012.9
20260503080955 42 202 1.7 1.7 0.00 0.00 0.00 78 1012.9
20260503080451 42 146 0.9 1.7 0.00 0.00 0.00 79 1012.9
20260503072922 42 155 0.0 0.0 0.00 0.00 0.00 82 1012.8
20260503072419 42 330 1.7 1.7 0.00 0.00 0.00 81 1012.9
20260503071916 42 183 0.0 0.9 0.00 0.00 0.00 81 1012.9
20260503071413 42 156 0.9 1.7 0.00 0.00 0.00 82 1012.9
20260503070909 42 177 0.0 0.9 0.00 0.00 0.00 83 1012.9
20260503070407 42 341 0.9 1.7 0.00 0.00 0.00 83 1012.6
20260503060332 42 290 1.7 1.7 0.00 0.00 0.00 82 1013.0
20260503054820 42 164 0.0 0.9 0.00 0.00 0.00 81 1013.1